Airfield :
LOGIN :

Register | Disclaimer

   EN    FR    IT 

 










Legend :    VFR   Marginal VFR   IFR   Intensive IFR   Very Intensive IFR
Visi :
Ceiling :
>= 8 km
>= 3000ft
5 to 8 km
1000 to 3000 ft
1500m to 5 km
500 to 1000 ft
800 to 1500m
200 to 500 ft
< 800m
< 200 ft
Symbols :   Thunderstorms  Fog  Heavy snow  Heavy precipitations  Wind > 20 kt
SIGMETs :     Misc.  Thunderstorms  Icing  Turbulence  Mountain Waves  Volcanic Ashes






- Airport Elevation : 92 ft


EGXZ - RAP Topcliffe

CURRENT METAR :
  • 071720Z AUTO 23005KT 9999 SCT036/// 12/07 Q1011

EXPIRED METARs :
  • 071650Z AUTO 26007KT 9999 NCD 14/07 Q1011
  • 071620Z AUTO 26012KT 9999 FEW035/// 14/06 Q1011
  • 071550Z AUTO 26013KT 9999 NCD 14/07 Q1010
  • 071520Z AUTO 26016KT 9999 NCD 15/06 Q1010
  • 071450Z AUTO 25010KT 9999 NCD 15/08 Q1010

Expired Forecast.



MET'MAP, your aeronautical weather chart ! - Copyright ORBIFLY December 2007 - Disclaimer

ORBIFLY MET'MAP TEAM :

Programming & Development : Alexandra Zaïnal
Original concept : Baudouin d'Aumeries
Technical & hardware support : Manuel Goepfert
Assistance : Marc-Olivier Méhu




SOURCES & CREDITS :

   NOAA